DW9727 Weather Reports


Display with metric or nautical units.
time (UTC)temp
F
wind
direction
speed
MPH
gust
MPH
rain 1hr
in
rain 24hr
in
rain mn
in
humidity
%
barometer
mb
20260508015710 60 53 1.0 3.0 0.00 0.00 0.00 32 1008.6
20260508014710 61 46 1.0 3.0 0.00 0.00 0.00 30 1008.6
20260508013711 63 45 2.0 3.0 0.00 0.00 0.00 28 1008.5
20260508012710 64 55 1.0 5.0 0.00 0.00 0.00 28 1008.4
20260508011710 65 36 1.0 3.0 0.00 0.00 0.00 27 1008.4
20260508010710 66 24 1.0 3.0 0.00 0.00 0.00 25 1008.4
20260508005710 67 13 3.0 8.0 0.00 0.00 0.00 24 1008.3
20260508004710 68 314 2.0 9.0 0.00 0.00 0.00 28 1008.3
20260508002710 69 322 2.0 8.0 0.00 0.00 0.00 26 1008.1
20260508001711 70 5 3.0 8.0 0.00 0.00 0.00 25 1008.3
20260507235710 70 268 7.0 14.0 0.00 0.00 0.00 27 1008.2
20260507234711 69 317 4.0 12.0 0.00 0.00 0.00 27 1008.1
20260507230711 71 319 9.0 14.0 0.00 0.00 0.00 27 1008.1
20260507225711 72 295 9.0 14.0 0.00 0.00 0.00 27 1008.3
20260507224710 71 321 6.0 12.0 0.00 0.00 0.00 27 1008.2
20260507223710 72 304 3.0 13.0 0.00 0.00 0.00 26 1008.1
20260507222710 72 297 3.0 12.0 0.00 0.00 0.00 28 1008.2
20260507221710 72 324 9.0 14.0 0.00 0.00 0.00 28 1008.2
20260507220710 72 321 10.0 15.0 0.00 0.00 0.00 29 1008.2
20260507215710 71 270 3.0 14.0 0.00 0.00 0.00 24 1008.3
20260507214711 72 258 7.0 16.0 0.00 0.00 0.00 27 1008.3
20260507212710 72 252 5.0 12.0 0.00 0.00 0.00 26 1008.4
20260507211710 71 261 5.0 14.0 0.00 0.00 0.00 31 1008.5
20260507210710 72 298 9.0 18.0 0.00 0.00 0.00 29 1008.6
20260507204711 71 9 1.0 15.0 0.00 0.00 0.00 26 1008.7
20260507203712 72 300 7.0 15.0 0.00 0.00 0.00 29 1008.9
20260507202710 71 5 7.0 12.0 0.00 0.00 0.00 30 1008.9
20260507201710 72 311 9.0 20.0 0.00 0.00 0.00 33 1009.1
20260507200710 71 288 8.0 21.0 0.00 0.00 0.00 31 1009.1
20260507195710 71 323 12.0 20.0 0.00 0.00 0.00 33 1009.3
20260507194710 71 334 9.0 17.0 0.00 0.00 0.00 32 1009.5
20260507193710 71 310 9.0 20.0 0.00 0.00 0.00 36 1009.5
20260507192710 70 264 4.0 25.0 0.00 0.00 0.00 36 1009.4
20260507191711 69 334 2.0 12.0 0.00 0.00 0.00 32 1009.4
20260507190711 69 262 8.0 14.0 0.00 0.00 0.00 32 1009.5
20260507185711 70 306 9.0 14.0 0.00 0.00 0.00 38 1009.6
20260507184710 68 315 5.0 15.0 0.00 0.00 0.00 30 1009.5
20260507183710 68 269 1.0 9.0 0.00 0.00 0.00 34 1009.4
20260507182711 68 314 2.0 15.0 0.00 0.00 0.00 39 1009.6
20260507181710 67 263 3.0 10.0 0.00 0.00 0.00 40 1009.6
20260507180711 67 11 3.0 9.0 0.00 0.00 0.00 46 1009.7
20260507174710 66 268 4.0 8.0 0.00 0.00 0.00 38 1009.9
20260507173711 65 349 4.0 8.0 0.00 0.00 0.00 44 1010.0
20260507171711 64 291 5.0 10.0 0.00 0.00 0.00 44 1010.2
20260507170711 63 316 3.0 9.0 0.00 0.00 0.00 48 1010.3
20260507165710 64 295 7.0 10.0 0.00 0.00 0.00 48 1010.3
20260507163710 61 246 3.0 8.0 0.00 0.00 0.00 45 1010.3
20260507162710 62 296 7.0 12.0 0.00 0.00 0.00 51 1010.4
20260507160710 61 315 7.0 10.0 0.00 0.00 0.00 49 1010.3
20260507154710 59 192 6.0 12.0 0.00 0.00 0.00 52 1010.4
20260507153710 59 224 6.0 12.0 0.00 0.00 0.00 53 1010.5
20260507152710 58 5 5.0 13.0 0.00 0.00 0.00 56 1010.6
20260507151710 58 265 6.0 16.0 0.00 0.00 0.00 54 1010.6
20260507150710 57 300 7.0 15.0 0.00 0.00 0.00 56 1010.7
20260507145710 57 240 8.0 16.0 0.00 0.00 0.00 54 1010.8
20260507144710 57 261 9.0 17.0 0.00 0.00 0.00 55 1010.8
20260507142710 56 219 12.0 21.0 0.00 0.00 0.00 52 1010.6
20260507140710 55 246 11.0 16.0 0.00 0.00 0.00 57 1010.7
20260507135710 54 228 13.0 20.0 0.00 0.00 0.00 58 1010.5
20260507133711 52 220 9.0 18.0 0.00 0.00 0.00 62 1010.8
20260507132711 51 209 13.0 22.0 0.00 0.00 0.00 62 1010.9
20260507131710 50 213 9.0 17.0 0.00 0.00 0.00 67 1010.8
20260507125710 48 229 9.0 13.0 0.00 0.00 0.00 70 1010.9
20260507124710 47 226 7.0 12.0 0.00 0.00 0.00 73 1010.9
20260507123710 46 238 6.0 12.0 0.00 0.00 0.00 74 1011.0
20260507122710 45 218 6.0 10.0 0.00 0.00 0.00 74 1011.1
20260507121711 45 216 7.0 12.0 0.00 0.00 0.00 75 1011.3
20260507115711 45 237 7.0 13.0 0.00 0.00 0.00 75 1011.3
20260507114711 45 223 8.0 13.0 0.00 0.00 0.00 75 1011.3
20260507113710 45 225 7.0 16.0 0.00 0.00 0.00 75 1011.4
20260507112710 45 219 10.0 16.0 0.00 0.00 0.00 75 1011.4
20260507111710 45 242 9.0 14.0 0.00 0.00 0.00 74 1011.4
20260507110711 45 227 11.0 14.0 0.00 0.00 0.00 74 1011.5
20260507103710 46 220 11.0 17.0 0.00 0.00 0.00 74 1011.7
20260507102710 46 219 10.0 16.0 0.00 0.00 0.00 73 1011.8
20260507101710 46 219 10.0 15.0 0.00 0.00 0.00 73 1011.9
20260507100711 46 217 12.0 18.0 0.00 0.00 0.00 73 1011.9
20260507095710 46 223 10.0 16.0 0.00 0.00 0.00 72 1012.0
20260507094711 46 212 11.0 18.0 0.00 0.00 0.00 72 1012.1
20260507093710 46 223 10.0 17.0 0.00 0.00 0.00 72 1012.1
20260507091711 46 220 10.0 20.0 0.00 0.00 0.00 72 1012.3
20260507090710 46 221 12.0 16.0 0.00 0.00 0.00 72 1012.4
20260507085710 46 211 10.0 17.0 0.00 0.00 0.00 72 1012.3
20260507084710 46 228 10.0 18.0 0.00 0.00 0.00 71 1012.5
20260507083710 46 219 11.0 17.0 0.00 0.00 0.00 70 1012.6
20260507082711 46 225 9.0 14.0 0.00 0.00 0.00 70 1012.6
20260507080711 46 215 7.0 15.0 0.00 0.00 0.00 69 1012.9
20260507075710 46 205 6.0 12.0 0.00 0.00 0.00 68 1012.9
20260507074710 46 213 6.0 9.0 0.00 0.00 0.00 68 1013.1
20260507073710 46 234 6.0 12.0 0.00 0.00 0.00 68 1013.2
20260507072710 46 205 6.0 12.0 0.00 0.00 0.00 67 1013.5
20260507071710 47 209 6.0 8.0 0.00 0.00 0.00 66 1013.6
20260507070710 47 223 5.0 10.0 0.00 0.00 0.00 64 1013.9
20260507064710 49 213 7.0 15.0 0.00 0.00 0.00 62 1014.0
20260507063711 49 233 9.0 15.0 0.00 0.00 0.00 62 1014.2
20260507062711 49 217 8.0 14.0 0.00 0.00 0.00 62 1014.1
20260507061711 49 245 8.0 14.0 0.00 0.00 0.00 62 1014.2
20260507060710 49 217 9.0 13.0 0.00 0.00 0.00 62 1014.3
20260507055710 48 212 7.0 13.0 0.00 0.00 0.00 63 1014.5
20260507054710 47 218 6.0 12.0 0.00 0.00 0.00 65 1014.5
20260507053711 46 219 3.0 7.0 0.00 0.00 0.00 64 1014.7
20260507052711 46 215 4.0 7.0 0.00 0.00 0.00 61 1014.8
20260507051711 46 217 2.0 3.0 0.00 0.00 0.00 57 1014.8
20260507044710 48 211 5.0 7.0 0.00 0.00 0.00 51 1014.9
20260507043711 49 217 3.0 6.0 0.00 0.00 0.00 48 1015.1
20260507042711 49 215 4.0 5.0 0.00 0.00 0.00 46 1015.2
20260507041710 50 194 1.0 3.0 0.00 0.00 0.00 45 1015.1
20260507035711 51 195 2.0 5.0 0.00 0.00 0.00 43 1015.2
20260507034711 51 211 2.0 3.0 0.00 0.00 0.00 43 1015.3
20260507033710 51 203 2.0 3.0 0.00 0.00 0.00 42 1015.3
20260507032710 50 201 2.0 3.0 0.00 0.00 0.00 42 1015.4
20260507030711 50 182 1.0 3.0 0.00 0.00 0.00 42 1015.5
20260507025711 51 194 1.0 2.0 0.00 0.00 0.00 41 1015.4
20260507024711 51 217 0.0 2.0 0.00 0.00 0.00 40 1015.4
20260507023711 52 217 1.0 3.0 0.00 0.00 0.00 39 1015.5
20260507021710 53 217 1.0 2.0 0.00 0.00 0.00 36 1015.3
20260507020711 53 211 1.0 3.0 0.00 0.00 0.00 36 1015.3